Time,TemperatureF,DewpointF,PressureIn,WindDirection,WindDirectionDegrees,WindSpeedMPH,WindSpeedGustMPH,Humidity,HourlyPrecipIn,Conditions,Clouds,dailyrainin,SoftwareType,DateUTC
2013-03-24 00:03:00,35.0,21.0,29.74,SSW,213,2.0,-999.0,56,-99.99,,,-99.99,,2013-03-24 04:03:00,
2013-03-24 00:13:00,35.0,21.0,29.74,SSW,213,2.0,-999.0,56,-99.99,,,-99.99,,2013-03-24 04:13:00,
2013-03-24 00:22:00,35.0,21.0,29.74,NW,325,2.0,-999.0,57,-99.99,,,-99.99,,2013-03-24 04:22:00,
2013-03-24 00:33:00,35.0,22.0,29.73,NNW,336,5.0,-999.0,58,-99.99,,,-99.99,,2013-03-24 04:33:00,
2013-03-24 00:43:00,35.0,22.0,29.73,NNW,336,5.0,-999.0,58,-99.99,,,-99.99,,2013-03-24 04:43:00,
2013-03-24 00:52:00,35.0,22.0,29.74,WSW,239,0.0,-999.0,59,-99.99,,,-99.99,,2013-03-24 04:52:00,
2013-03-24 01:02:00,35.0,22.0,29.74,West,271,3.0,-999.0,58,-99.99,,,-99.99,,2013-03-24 05:02:00,
2013-03-24 01:12:00,35.0,22.0,29.74,West,271,3.0,-999.0,58,-99.99,,,-99.99,,2013-03-24 05:12:00,
2013-03-24 01:22:00,35.0,22.0,29.73,NW,310,4.0,-999.0,58,-99.99,,,-99.99,,2013-03-24 05:22:00,
2013-03-24 01:32:00,34.0,21.0,29.74,West,279,2.0,-999.0,59,-99.99,,,-99.99,,2013-03-24 05:32:00,
2013-03-24 01:42:00,34.0,21.0,29.74,West,279,2.0,-999.0,59,-99.99,,,-99.99,,2013-03-24 05:42:00,
2013-03-24 01:52:00,34.0,22.0,29.74,WNW,288,5.0,-999.0,60,-99.99,,,-99.99,,2013-03-24 05:52:00,
2013-03-24 02:02:00,33.0,21.0,29.74,WSW,238,0.0,-999.0,61,-99.99,,,-99.99,,2013-03-24 06:02:00,
2013-03-24 02:12:00,33.0,21.0,29.74,WSW,238,0.0,-999.0,61,-99.99,,,-99.99,,2013-03-24 06:12:00,
2013-03-24 02:22:00,33.0,21.0,29.75,West,272,1.0,-999.0,61,-99.99,,,-99.99,,2013-03-24 06:22:00,
2013-03-24 02:32:00,33.0,21.0,29.75,WNW,302,2.0,-999.0,62,-99.99,,,-99.99,,2013-03-24 06:32:00,
2013-03-24 02:42:00,33.0,21.0,29.75,WNW,302,2.0,-999.0,62,-99.99,,,-99.99,,2013-03-24 06:42:00,
2013-03-24 02:52:00,33.0,21.0,29.75,North,360,2.0,-999.0,62,-99.99,,,-99.99,,2013-03-24 06:52:00,
2013-03-24 03:02:00,33.0,22.0,29.75,WNW,291,3.0,-999.0,63,-99.99,,,-99.99,,2013-03-24 07:02:00,
2013-03-24 03:12:00,33.0,22.0,29.75,WNW,291,3.0,-999.0,63,-99.99,,,-99.99,,2013-03-24 07:12:00,
2013-03-24 03:22:00,33.0,22.0,29.75,West,280,0.0,-999.0,63,-99.99,,,-99.99,,2013-03-24 07:22:00,
2013-03-24 03:32:00,33.0,22.0,29.74,WNW,292,1.0,-999.0,64,-99.99,,,-99.99,,2013-03-24 07:32:00,
2013-03-24 03:42:00,33.0,22.0,29.74,WNW,292,1.0,-999.0,64,-99.99,,,-99.99,,2013-03-24 07:42:00,
2013-03-24 03:52:00,32.0,22.0,29.75,West,279,0.0,-999.0,65,-99.99,,,-99.99,,2013-03-24 07:52:00,
2013-03-24 04:03:00,32.0,22.0,29.74,West,281,0.0,-999.0,66,-99.99,,,-99.99,,2013-03-24 08:03:00,
2013-03-24 04:12:00,32.0,22.0,29.74,West,281,0.0,-999.0,66,-99.99,,,-99.99,,2013-03-24 08:12:00,
2013-03-24 04:22:00,32.0,22.0,29.74,West,280,0.0,-999.0,66,-99.99,,,-99.99,,2013-03-24 08:22:00,
2013-03-24 04:32:00,32.0,22.0,29.74,West,266,2.0,-999.0,66,-99.99,,,-99.99,,2013-03-24 08:32:00,
2013-03-24 04:42:00,32.0,22.0,29.74,West,266,2.0,-999.0,66,-99.99,,,-99.99,,2013-03-24 08:42:00,
2013-03-24 04:52:00,32.0,22.0,29.73,West,264,1.0,-999.0,67,-99.99,,,-99.99,,2013-03-24 08:52:00,
2013-03-24 05:02:00,32.0,22.0,29.73,NNW,329,2.0,-999.0,67,-99.99,,,-99.99,,2013-03-24 09:02:00,
2013-03-24 05:12:00,32.0,22.0,29.73,NNW,329,2.0,-999.0,67,-99.99,,,-99.99,,2013-03-24 09:12:00,
2013-03-24 05:22:00,32.0,23.0,29.73,WNW,299,1.0,-999.0,68,-99.99,,,-99.99,,2013-03-24 09:22:00,
2013-03-24 05:33:00,32.0,23.0,29.74,WNW,302,0.0,-999.0,68,-99.99,,,-99.99,,2013-03-24 09:33:00,
2013-03-24 05:42:00,32.0,23.0,29.74,WNW,302,0.0,-999.0,68,-99.99,,,-99.99,,2013-03-24 09:42:00,
2013-03-24 05:52:00,32.0,23.0,29.75,WNW,302,2.0,-999.0,69,-99.99,,,-99.99,,2013-03-24 09:52:00,
2013-03-24 06:03:00,31.0,22.0,29.75,WNW,301,0.0,-999.0,70,-99.99,,,-99.99,,2013-03-24 10:03:00,
2013-03-24 06:12:00,31.0,22.0,29.75,WNW,301,0.0,-999.0,70,-99.99,,,-99.99,,2013-03-24 10:12:00,
2013-03-24 06:22:00,31.0,22.0,29.74,WNW,300,0.0,-999.0,70,-99.99,,,-99.99,,2013-03-24 10:22:00,
2013-03-24 06:33:00,31.0,23.0,29.75,WNW,301,0.0,-999.0,72,-99.99,,,-99.99,,2013-03-24 10:33:00,
2013-03-24 06:42:00,31.0,23.0,29.75,WNW,301,0.0,-999.0,72,-99.99,,,-99.99,,2013-03-24 10:42:00,
2013-03-24 06:52:00,31.0,23.0,29.76,WNW,300,0.0,-999.0,72,-99.99,,,-99.99,,2013-03-24 10:52:00,
2013-03-24 07:03:00,31.0,23.0,29.78,WNW,301,0.0,-999.0,72,-99.99,,,-99.99,,2013-03-24 11:03:00,
2013-03-24 07:12:00,31.0,23.0,29.78,WNW,301,0.0,-999.0,72,-99.99,,,-99.99,,2013-03-24 11:12:00,
2013-03-24 07:22:00,31.0,23.0,29.78,NW,311,0.0,-999.0,71,-99.99,,,-99.99,,2013-03-24 11:22:00,
2013-03-24 07:33:00,32.0,23.0,29.78,North,360,0.0,-999.0,70,-99.99,,,-99.99,,2013-03-24 11:33:00,
2013-03-24 07:42:00,32.0,23.0,29.78,North,360,0.0,-999.0,70,-99.99,,,-99.99,,2013-03-24 11:42:00,
2013-03-24 07:52:00,32.0,23.0,29.78,North,355,4.0,-999.0,69,-99.99,,,-99.99,,2013-03-24 11:52:00,
2013-03-24 08:03:00,34.0,24.0,29.79,West,278,2.0,-999.0,67,-99.99,,,-99.99,,2013-03-24 12:03:00,
2013-03-24 08:12:00,34.0,24.0,29.79,West,278,2.0,-999.0,67,-99.99,,,-99.99,,2013-03-24 12:12:00,
2013-03-24 08:22:00,34.0,24.0,29.79,NNW,342,1.0,-999.0,66,-99.99,,,-99.99,,2013-03-24 12:22:00,
2013-03-24 08:32:00,35.0,24.0,29.78,NW,322,4.0,-999.0,63,-99.99,,,-99.99,,2013-03-24 12:32:00,
2013-03-24 08:42:00,35.0,24.0,29.78,NW,322,4.0,-999.0,63,-99.99,,,-99.99,,2013-03-24 12:42:00,
2013-03-24 08:52:00,36.0,25.0,29.78,NNW,342,5.0,-999.0,63,-99.99,,,-99.99,,2013-03-24 12:52:00,
2013-03-24 09:02:00,37.0,25.0,29.78,NNW,331,4.0,-999.0,61,-99.99,,,-99.99,,2013-03-24 13:02:00,
2013-03-24 09:12:00,37.0,25.0,29.78,NNW,331,4.0,-999.0,61,-99.99,,,-99.99,,2013-03-24 13:12:00,
2013-03-24 09:22:00,38.0,25.0,29.78,NW,318,5.0,-999.0,59,-99.99,,,-99.99,,2013-03-24 13:22:00,
2013-03-24 09:32:00,38.0,25.0,29.77,West,279,7.0,-999.0,58,-99.99,,,-99.99,,2013-03-24 13:32:00,
2013-03-24 09:42:00,38.0,25.0,29.77,West,279,7.0,-999.0,58,-99.99,,,-99.99,,2013-03-24 13:42:00,
2013-03-24 09:52:00,39.0,25.0,29.78,NNW,337,5.0,-999.0,56,-99.99,,,-99.99,,2013-03-24 13:52:00,
2013-03-24 10:02:00,39.0,24.0,29.78,West,271,1.0,-999.0,55,-99.99,,,-99.99,,2013-03-24 14:02:00,
2013-03-24 10:12:00,39.0,24.0,29.78,West,271,1.0,-999.0,55,-99.99,,,-99.99,,2013-03-24 14:12:00,
2013-03-24 10:22:00,40.0,25.0,29.78,NNW,342,6.0,-999.0,54,-99.99,,,-99.99,,2013-03-24 14:22:00,
2013-03-24 10:32:00,41.0,25.0,29.78,NNE,18,9.0,-999.0,52,-99.99,,,-99.99,,2013-03-24 14:32:00,
2013-03-24 10:42:00,41.0,25.0,29.78,NNE,18,9.0,-999.0,52,-99.99,,,-99.99,,2013-03-24 14:42:00,
2013-03-24 10:52:00,41.0,25.0,29.78,NNE,26,18.0,-999.0,52,-99.99,,,-99.99,,2013-03-24 14:52:00,
2013-03-24 11:02:00,42.0,25.0,29.77,NW,306,7.0,-999.0,51,-99.99,,,-99.99,,2013-03-24 15:02:00,
2013-03-24 11:12:00,42.0,25.0,29.77,NW,306,7.0,-999.0,51,-99.99,,,-99.99,,2013-03-24 15:12:00,
2013-03-24 11:22:00,42.0,25.0,29.78,North,350,5.0,-999.0,50,-99.99,,,-99.99,,2013-03-24 15:22:00,
2013-03-24 11:33:00,42.0,24.0,29.78,West,275,3.0,-999.0,49,-99.99,,,-99.99,,2013-03-24 15:33:00,
2013-03-24 11:43:00,42.0,24.0,29.78,West,275,3.0,-999.0,49,-99.99,,,-99.99,,2013-03-24 15:43:00,
2013-03-24 11:53:00,43.0,25.0,29.78,East,90,0.0,-999.0,48,-99.99,,,-99.99,,2013-03-24 15:53:00,
2013-03-24 12:03:00,44.0,25.0,29.78,North,360,0.0,-999.0,46,-99.99,,,-99.99,,2013-03-24 16:03:00,
2013-03-24 12:13:00,44.0,25.0,29.78,North,360,0.0,-999.0,46,-99.99,,,-99.99,,2013-03-24 16:13:00,
2013-03-24 12:23:00,44.0,25.0,29.78,NW,316,4.0,-999.0,46,-99.99,,,-99.99,,2013-03-24 16:23:00,
2013-03-24 12:33:00,44.0,24.0,29.78,North,349,3.0,-999.0,45,-99.99,,,-99.99,,2013-03-24 16:33:00,
2013-03-24 12:42:00,44.0,24.0,29.78,North,349,3.0,-999.0,45,-99.99,,,-99.99,,2013-03-24 16:42:00,
2013-03-24 12:52:00,45.0,25.0,29.77,West,265,3.0,-999.0,45,-99.99,,,-99.99,,2013-03-24 16:52:00,
2013-03-24 13:02:00,44.0,23.0,29.77,WSW,237,3.0,-999.0,44,-99.99,,,-99.99,,2013-03-24 17:02:00,
2013-03-24 13:12:00,44.0,23.0,29.77,WSW,237,3.0,-999.0,44,-99.99,,,-99.99,,2013-03-24 17:12:00,
2013-03-24 13:23:00,44.0,24.0,29.78,WNW,298,3.0,-999.0,45,-99.99,,,-99.99,,2013-03-24 17:23:00,
2013-03-24 13:33:00,45.0,24.0,29.77,North,350,5.0,-999.0,44,-99.99,,,-99.99,,2013-03-24 17:33:00,
2013-03-24 13:42:00,45.0,24.0,29.77,North,350,5.0,-999.0,44,-99.99,,,-99.99,,2013-03-24 17:42:00,
2013-03-24 13:52:00,45.0,24.0,29.76,NNE,19,1.0,-999.0,44,-99.99,,,-99.99,,2013-03-24 17:52:00,
2013-03-24 14:03:00,45.0,24.0,29.75,SSE,159,0.0,-999.0,44,-99.99,,,-99.99,,2013-03-24 18:03:00,
2013-03-24 14:12:00,45.0,24.0,29.75,SSE,159,0.0,-999.0,44,-99.99,,,-99.99,,2013-03-24 18:12:00,
2013-03-24 14:22:00,45.0,24.0,29.75,NNE,14,3.0,-999.0,43,-99.99,,,-99.99,,2013-03-24 18:22:00,
2013-03-24 14:32:00,46.0,24.0,29.75,NNE,23,1.0,-999.0,42,-99.99,,,-99.99,,2013-03-24 18:32:00,
2013-03-24 14:43:00,46.0,24.0,29.75,NNE,23,1.0,-999.0,42,-99.99,,,-99.99,,2013-03-24 18:43:00,
2013-03-24 14:52:00,46.0,24.0,29.75,NNE,31,2.0,-999.0,41,-99.99,,,-99.99,,2013-03-24 18:52:00,
2013-03-24 15:02:00,45.0,24.0,29.75,NW,326,2.0,-999.0,43,-99.99,,,-99.99,,2013-03-24 19:02:00,
2013-03-24 15:12:00,45.0,24.0,29.75,NW,326,2.0,-999.0,43,-99.99,,,-99.99,,2013-03-24 19:12:00,
2013-03-24 15:22:00,46.0,23.0,29.74,NNE,21,1.0,-999.0,40,-99.99,,,-99.99,,2013-03-24 19:22:00,
2013-03-24 15:32:00,47.0,24.0,29.73,NNE,24,4.0,-999.0,40,-99.99,,,-99.99,,2013-03-24 19:32:00,
2013-03-24 15:43:00,47.0,24.0,29.73,NNE,24,4.0,-999.0,40,-99.99,,,-99.99,,2013-03-24 19:43:00,
2013-03-24 15:52:00,47.0,24.0,29.73,SW,234,3.0,-999.0,40,-99.99,,,-99.99,,2013-03-24 19:52:00,
2013-03-24 16:03:00,44.0,28.0,29.73,SE,125,2.0,-999.0,53,-99.99,,,-99.99,,2013-03-24 20:03:00,
2013-03-24 16:12:00,44.0,28.0,29.73,SE,125,2.0,-999.0,53,-99.99,,,-99.99,,2013-03-24 20:12:00,
2013-03-24 16:22:00,44.0,28.0,29.73,SSE,161,3.0,-999.0,54,-99.99,,,-99.99,,2013-03-24 20:22:00,
2013-03-24 16:32:00,44.0,28.0,29.72,SSE,161,5.0,-999.0,53,-99.99,,,-99.99,,2013-03-24 20:32:00,
2013-03-24 16:42:00,44.0,28.0,29.72,SSE,161,5.0,-999.0,53,-99.99,,,-99.99,,2013-03-24 20:42:00,
2013-03-24 16:52:00,43.0,28.0,29.73,SSE,167,2.0,-999.0,55,-99.99,,,-99.99,,2013-03-24 20:52:00,
2013-03-24 17:02:00,43.0,30.0,29.72,SSE,165,4.0,-999.0,59,-99.99,,,-99.99,,2013-03-24 21:02:00,
2013-03-24 17:12:00,43.0,30.0,29.72,SSE,165,4.0,-999.0,59,-99.99,,,-99.99,,2013-03-24 21:12:00,
2013-03-24 17:22:00,41.0,28.0,29.72,SSE,159,3.0,-999.0,60,-99.99,,,-99.99,,2013-03-24 21:22:00,
2013-03-24 17:33:00,40.0,29.0,29.73,SSE,159,0.0,-999.0,65,-99.99,,,-99.99,,2013-03-24 21:33:00,
2013-03-24 17:43:00,40.0,29.0,29.73,SSE,159,0.0,-999.0,65,-99.99,,,-99.99,,2013-03-24 21:43:00,
2013-03-24 17:52:00,40.0,29.0,29.73,South,185,2.0,-999.0,64,-99.99,,,-99.99,,2013-03-24 21:52:00,
2013-03-24 18:03:00,40.0,30.0,29.74,SSE,152,2.0,-999.0,68,-99.99,,,-99.99,,2013-03-24 22:03:00,
2013-03-24 18:13:00,40.0,30.0,29.74,SSE,152,2.0,-999.0,68,-99.99,,,-99.99,,2013-03-24 22:13:00,
2013-03-24 18:23:00,40.0,30.0,29.74,SSW,209,1.0,-999.0,67,-99.99,,,-99.99,,2013-03-24 22:23:00,
2013-03-24 18:33:00,40.0,30.0,29.75,SSW,192,0.0,-999.0,68,-99.99,,,-99.99,,2013-03-24 22:33:00,
2013-03-24 18:43:00,40.0,30.0,29.75,SSW,192,0.0,-999.0,68,-99.99,,,-99.99,,2013-03-24 22:43:00,
2013-03-24 18:52:00,40.0,31.0,29.75,South,188,3.0,-999.0,69,-99.99,,,-99.99,,2013-03-24 22:52:00,
2013-03-24 19:03:00,39.0,30.0,29.74,SSW,205,0.0,-999.0,70,-99.99,,,-99.99,,2013-03-24 23:03:00,
2013-03-24 19:12:00,39.0,30.0,29.74,SSW,205,0.0,-999.0,70,-99.99,,,-99.99,,2013-03-24 23:12:00,
2013-03-24 19:22:00,38.0,29.0,29.75,SSW,205,0.0,-999.0,71,-99.99,,,-99.99,,2013-03-24 23:22:00,
2013-03-24 19:32:00,36.0,29.0,29.75,SSW,205,0.0,-999.0,75,-99.99,,,-99.99,,2013-03-24 23:32:00,
2013-03-24 19:42:00,36.0,29.0,29.75,SSW,205,0.0,-999.0,75,-99.99,,,-99.99,,2013-03-24 23:42:00,
2013-03-24 19:52:00,36.0,29.0,29.75,SSW,205,0.0,-999.0,77,-99.99,,,-99.99,,2013-03-24 23:52:00,
2013-03-24 20:02:00,36.0,30.0,29.76,SSW,205,0.0,-999.0,79,-99.99,,,-99.99,,2013-03-25 00:02:00,
2013-03-24 20:12:00,36.0,30.0,29.76,SSW,205,0.0,-999.0,79,-99.99,,,-99.99,,2013-03-25 00:12:00,
2013-03-24 20:22:00,35.0,29.0,29.76,SSW,205,0.0,-999.0,80,-99.99,,,-99.99,,2013-03-25 00:22:00,
2013-03-24 20:32:00,35.0,30.0,29.76,SSW,205,0.0,-999.0,81,-99.99,,,-99.99,,2013-03-25 00:32:00,
2013-03-24 20:42:00,35.0,30.0,29.76,SSW,205,0.0,-999.0,81,-99.99,,,-99.99,,2013-03-25 00:42:00,
2013-03-24 20:52:00,34.0,29.0,29.75,SSW,205,0.0,-999.0,83,-99.99,,,-99.99,,2013-03-25 00:52:00,
2013-03-24 21:02:00,33.0,29.0,29.75,SSW,205,0.0,-999.0,84,-99.99,,,-99.99,,2013-03-25 01:02:00,
2013-03-24 21:12:00,33.0,29.0,29.75,SSW,205,0.0,-999.0,84,-99.99,,,-99.99,,2013-03-25 01:12:00,
2013-03-24 21:22:00,33.0,29.0,29.76,SSW,205,0.0,-999.0,85,-99.99,,,-99.99,,2013-03-25 01:22:00,
2013-03-24 21:32:00,33.0,29.0,29.77,SSW,205,0.0,-999.0,86,-99.99,,,-99.99,,2013-03-25 01:32:00,
2013-03-24 21:42:00,33.0,29.0,29.77,SSW,205,0.0,-999.0,86,-99.99,,,-99.99,,2013-03-25 01:42:00,
2013-03-24 21:52:00,33.0,30.0,29.78,SSW,205,0.0,-999.0,87,-99.99,,,-99.99,,2013-03-25 01:52:00,
2013-03-24 22:02:00,33.0,29.0,29.78,SSW,205,0.0,-999.0,86,-99.99,,,-99.99,,2013-03-25 02:02:00,
2013-03-24 22:12:00,33.0,29.0,29.78,SSW,205,0.0,-999.0,86,-99.99,,,-99.99,,2013-03-25 02:12:00,
2013-03-24 22:22:00,34.0,30.0,29.78,SSW,205,0.0,-999.0,85,-99.99,,,-99.99,,2013-03-25 02:22:00,
2013-03-24 22:33:00,34.0,30.0,29.78,SSW,205,0.0,-999.0,85,-99.99,,,-99.99,,2013-03-25 02:33:00,
2013-03-24 22:42:00,34.0,30.0,29.78,SSW,205,0.0,-999.0,85,-99.99,,,-99.99,,2013-03-25 02:42:00,
2013-03-24 22:52:00,34.0,30.0,29.78,SSW,205,0.0,-999.0,85,-99.99,,,-99.99,,2013-03-25 02:52:00,
2013-03-24 23:02:00,34.0,30.0,29.78,SSW,205,0.0,-999.0,86,-99.99,,,-99.99,,2013-03-25 03:02:00,
2013-03-24 23:13:00,34.0,30.0,29.78,SSW,205,0.0,-999.0,86,-99.99,,,-99.99,,2013-03-25 03:13:00,
2013-03-24 23:23:00,34.0,30.0,29.77,SSW,205,0.0,-999.0,86,-99.99,,,-99.99,,2013-03-25 03:23:00,
2013-03-24 23:33:00,34.0,30.0,29.77,SSW,205,0.0,-999.0,86,-99.99,,,-99.99,,2013-03-25 03:33:00,
2013-03-24 23:43:00,33.0,29.0,29.76,SSW,205,0.0,-999.0,86,-99.99,,,-99.99,,2013-03-25 03:43:00,
2013-03-24 23:52:00,33.0,29.0,29.76,SSW,205,0.0,-999.0,86,-99.99,,,-99.99,,2013-03-25 03:52:00,